Location: Newark
(41.8083°N, 72.2500°W)
Time: 01:01:55
(UTC+00:00)

Vanguard 1 Rocket - Visible Passes

Search period start: 07 December 2021 00:00
Search period end: 17 December 2021 00:00
Orbit: 650 x 4226 km, 34.3° (Epoch: 04 December)

Date Brightness Start Highest point End Pass type
(mag) Time Alt. Az. Time Alt. Az. Time Alt. Az.
07 Dec 9.8 07:20:41 50° SE 07:20:41 50° SE 07:35:20 10° E visible
07 Dec 9.8 09:37:58 34° WSW 09:45:46 64° S 10:09:04 10° ESE visible
08 Dec 10.6 06:13:26 24° E 06:13:26 24° E 06:19:40 10° E visible
08 Dec 9.3 08:30:43 61° SSW 08:32:34 65° S 08:53:18 10° ESE visible
08 Dec 10.4 10:47:59 13° W 11:01:48 53° SSW 11:25:33 10° SE visible
09 Dec 9.7 07:23:28 50° SE 07:23:28 50° SE 07:37:27 10° E visible
09 Dec 9.7 09:40:44 33° WSW 09:48:09 59° SSW 10:10:44 10° ESE visible
10 Dec 10.6 06:16:13 24° E 06:16:13 24° E 06:21:57 10° E visible
10 Dec 9.3 08:33:29 60° SSW 08:35:03 62° S 08:55:13 10° ESE visible
10 Dec 10.4 10:50:46 13° W 11:04:02 47° SSW 11:26:39 10° SE visible
11 Dec 9.7 07:26:15 48° SE 07:26:15 48° SE 07:39:32 10° E visible
11 Dec 9.7 09:43:31 32° WSW 09:50:33 54° SSW 10:12:12 10° SE visible
12 Dec 10.6 06:19:01 23° E 06:19:01 23° E 06:24:13 10° E visible
12 Dec 9.3 08:36:17 57° SSW 08:37:35 59° S 08:57:00 10° ESE visible
12 Dec 10.4 10:53:34 12° W 11:06:18 40° SSW 11:27:24 10° SSE visible
13 Dec 9.8 07:29:04 46° SE 07:29:04 46° SE 07:41:34 10° ESE visible
13 Dec 9.8 09:46:20 31° WSW 09:52:58 48° SSW 10:13:26 10° SE visible
14 Dec 10.6 06:21:51 21° ESE 06:21:51 21° ESE 06:26:28 10° E visible
14 Dec 9.4 08:39:07 53° SSW 08:40:07 53° SSW 08:58:38 10° ESE visible
14 Dec 10.5 10:56:24 10° W 11:08:37 33° SSW 11:27:45 10° SSE visible
15 Dec 9.8 07:31:55 43° SE 07:31:55 43° SE 07:43:32 10° ESE visible
15 Dec 9.9 09:49:12 28° WSW 09:55:26 41° SSW 10:14:23 10° SE visible
16 Dec 10.7 06:24:44 20° ESE 06:24:44 20° ESE 06:28:39 10° ESE visible
16 Dec 9.5 08:42:01 47° SSW 08:42:41 47° SSW 09:00:05 10° SE visible
16 Dec 10.5 10:59:51 10° W 11:11:00 26° SSW 11:27:33 10° SSE visible
